AGROMETEOROLOŠKI PORTAL

vinorodna pokrajina

Temelj dobrega kmetovanja

Pregled podatkov za lokacijo LOGATEC - ARSO, meteorološka postaja 159

Pregled senzorjev na lokaciji

ID Ime Zadnja
vrednost
Datum in čas
meritve
(lokalni čas)
Tip
senzorja
6016 Relativna zračna vlaga (2 m) (% RH) 86 % RH 28.1.2023 07:30 ARSO
6015 Temperatura (2 m) (°C) -3,1 °C 28.1.2023 07:30 ARSO

Pregled podatkov zadnjih 24 ur

Zap.
št.
Datum in čas
(lokalni čas)
LOGATEC - ARSO
Relativna
zračna
vlaga
(2
m)
Temperatura
(2
m)
1 28.1.2023 07:30 86,3 -3,1
2 28.1.2023 07:00 86 -3
3 28.1.2023 06:30 85,7 -3,1
4 28.1.2023 06:00 85,3 -3,1
5 28.1.2023 05:30 85,3 -2,9
6 28.1.2023 05:00 86 -2,9
7 28.1.2023 04:30 84 -2,7
8 28.1.2023 04:00 82,7 -2,5
9 28.1.2023 03:30 81,7 -2,5
10 28.1.2023 03:00 83 -2,9
11 28.1.2023 02:30 85,7 -2,9
12 28.1.2023 02:00 89 -3,3
13 28.1.2023 01:30 88,7 -3,6
14 28.1.2023 01:00 88,7 -3
15 28.1.2023 00:30 89,7 -2,8
16 28.1.2023 00:00 91 -2,6
17 27.1.2023 23:30 91 -2,5
18 27.1.2023 23:00 91,7 -2,5
19 27.1.2023 22:30 90,7 -2,4
20 27.1.2023 22:00 90 -2,3
21 27.1.2023 21:30 90 -2,3
22 27.1.2023 21:00 87,3 -2,2
23 27.1.2023 20:30 83 -1,9
24 27.1.2023 20:00 78 -1,6
25 27.1.2023 19:30 74 -1,3
26 27.1.2023 19:00 71,3 -1,2
27 27.1.2023 18:30 70,7 -1,2
28 27.1.2023 18:00 68,3 -1,1
29 27.1.2023 17:30 66,3 -1
30 27.1.2023 17:00 65,3 -0,8
31 27.1.2023 16:30 65 -0,6
32 27.1.2023 16:00 65,3 -0,2
33 27.1.2023 15:30 65,7 0
34 27.1.2023 15:00 65 0
35 27.1.2023 14:30 65 -0,1
36 27.1.2023 14:00 66,3 -0,4
37 27.1.2023 13:30 67,7 -0,3
38 27.1.2023 13:00 68,3 -0,2
39 27.1.2023 12:30 69 -0,3
40 27.1.2023 12:00 69 -0,5
41 27.1.2023 11:30 70 -0,9
42 27.1.2023 11:00 70,3 -0,9
43 27.1.2023 10:30 71,7 -0,9
44 27.1.2023 10:00 72,3 -1,1
45 27.1.2023 09:30 72,7 -1,4
46 27.1.2023 09:00 72,3 -1,6
47 27.1.2023 08:30 73 -1,6
48 27.1.2023 08:00 72,7 -1,6